Location: Keppel Henge
(44.7900°N, 80.9447°W)
Time: 07:08:01
(UTC-04:00)

Envisat - Pass Details

Date: 13 October 2017
Orbit: 764 x 766 km, 98.2° (Epoch: 19 October)

Event Time Altitude Azimuth Distance (km) Brightness Sun altitude
Exits shadow 19:16:46 - 80° (E) 2,452 4.9 -6.9°
Reaches altitude 10° 19:17:55 10° 68° (ENE) 2,307 4.9 -7.1°
Maximum altitude 19:19:02 11° 55° (NE) 2,259 4.9 -7.3°
Drops below altitude 10° 19:20:09 10° 42° (NE) 2,310 5.1 -7.5°
Sets 19:24:31 0° 6° (N) 3,242 6.1 -8.3°
